TimeCST,TemperatureF,Dew PointF,Humidity,Sea Level PressureIn,VisibilityMPH,Wind Direction,Wind SpeedMPH,Gust SpeedMPH,PrecipitationIn,Events,Conditions,WindDirDegrees,DateUTC
12:00 AM,64.4,53.6,68,29.97,-9999.0,ENE,5.8,-,N/A,,Clear,60,2013-01-16 06:00:00
1:00 AM,62.6,51.8,68,29.96,-9999.0,ENE,10.4,-,N/A,,Clear,60,2013-01-16 07:00:00
2:00 AM,60.8,46.4,59,29.96,-9999.0,NE,8.1,-,N/A,,Clear,40,2013-01-16 08:00:00
3:00 AM,64,48,45,29.79,12,ENE,5.8,,,,,70,2013-01-16 09:00:00
3:00 AM,64.4,48.2,56,29.95,-9999.0,ENE,5.8,-,N/A,,Clear,70,2013-01-16 09:00:00
4:00 AM,62.6,51.8,68,29.95,-9999.0,East,5.8,-,N/A,,Clear,90,2013-01-16 10:00:00
5:00 AM,64.4,53.6,68,29.96,-9999.0,ENE,6.9,-,N/A,,Clear,70,2013-01-16 11:00:00
6:00 AM,66.2,51.8,60,29.97,-9999.0,ENE,13.8,-,N/A,,Clear,60,2013-01-16 12:00:00
7:00 AM,66.2,57.2,73,29.99,-9999.0,East,8.1,-,N/A,,Clear,80,2013-01-16 13:00:00
8:00 AM,73.4,57.2,57,30.01,-9999.0,East,5.8,-,N/A,,Clear,80,2013-01-16 14:00:00
9:00 AM,77,56,37,29.85,12,East,6.9,,,,,100,2013-01-16 15:00:00
9:00 AM,77.0,55.4,47,30.01,-9999.0,East,6.9,-,N/A,,Clear,100,2013-01-16 15:00:00
10:00 AM,82.4,53.6,37,30.00,-9999.0,SE,5.8,-,N/A,,Clear,130,2013-01-16 16:00:00
11:00 AM,78.8,59.0,51,29.97,6.2,WSW,8.1,-,N/A,,Partly Cloudy,240,2013-01-16 17:00:00
12:00 PM,80,65,50,29.79,12,SW,8.1,,,,Partly Cloudy,230,2013-01-16 18:00:00
12:00 PM,80.6,59.0,48,29.95,6.2,SW,8.1,-,N/A,,Scattered Clouds,230,2013-01-16 18:00:00
1:00 PM,80.6,60.8,51,29.94,6.2,SW,10.4,-,N/A,,Scattered Clouds,220,2013-01-16 19:00:00
2:00 PM,78.8,64.4,61,29.93,6.2,West,8.1,-,N/A,,Mostly Cloudy,260,2013-01-16 20:00:00
3:00 PM,78,65,57,29.77,12,WSW,15.0,,,,Partly Cloudy,250,2013-01-16 21:00:00
3:00 PM,78.8,66.2,65,29.93,6.2,WSW,15.0,-,N/A,,Mostly Cloudy,250,2013-01-16 21:00:00
4:00 PM,75.2,66.2,73,29.94,6.2,WSW,11.5,-,N/A,,Mostly Cloudy,250,2013-01-16 22:00:00
5:00 PM,73.4,66.2,78,29.97,6.2,WSW,10.4,-,N/A,,Mostly Cloudy,240,2013-01-16 23:00:00
6:00 PM,72,60,58,29.86,12,SSE,9.2,,,,Overcast,150,2013-01-17 00:00:00
6:00 PM,71.6,60.8,69,29.99,6.2,SSE,9.2,-,N/A,,Mostly Cloudy,150,2013-01-17 00:00:00
7:00 PM,71.6,59.0,64,30.00,6.2,East,13.8,-,N/A,,Mostly Cloudy,80,2013-01-17 01:00:00
8:00 PM,71.6,55.4,57,30.02,-9999.0,East,11.5,-,N/A,,Clear,100,2013-01-17 02:00:00
9:00 PM,70,56,52,29.87,12,East,8.1,,,,Scattered Clouds,100,2013-01-17 03:00:00
9:00 PM,69.8,57.2,64,30.02,-9999.0,East,8.1,-,N/A,,Clear,100,2013-01-17 03:00:00
10:00 PM,69.8,57.2,64,30.01,-9999.0,East,10.4,-,N/A,,Clear,100,2013-01-17 04:00:00
11:00 PM,69.8,55.4,60,29.99,-9999.0,ESE,11.5,23.0,N/A,,Clear,110,2013-01-17 05:00:00